Charter Quote
Worldwide +44-20-3874-8091 Call
Select Language Lang
SAFETY RELIABILITY EXPERIENCE

Nowra Airport (YSNW) - Jet Charter Services

AIRPORT INFORMATION
ICAOYSNW
IATANOA
LOCATIONNowra, Australia
FACILITY TYPEAIRPORT
Runway Length (ft) Width (ft) Surface Type Elevation (ft)
26/08 6870 148 ASP 399.73770
21/03 6713 148 ASP 399.73770

At Paramount Business Jets you can hire chartered private jets to and from Nowra Airport with as little as 4 hours of notice. All flights booked via Paramount Business Jets are operated by certified direct air carriers that meet and exceed the FAA part 135 and 121 protocol or a foreign equivalent safety authority. Furthermore, Paramount Business Jets subscribes to ARGUS for their third party safety checks of operators, aircraft, and crews prior each and every flight to and from Nowra Airport and worldwide.

  • Quote a trip using Nowra Airport or call us 24/7 - 365 days a year at +44-20-3874-8091.
Questions? Call +44-20-3874-8091

METAR Weather Data at Nowra Airport, YSNW, NOA

STATIONYSNW
OBSERVEDThu Jun 20, 23:00 UTC
NOWFri Jun 21, 00:01 UTC
AGE61 min ago
WINDNW at 9 mph
VISIBILITYgreater than 7 miles
CLOUDSclear skies
TEMP46°F (8°C)
WIND CHILL41°F (5°C)
DEWPT34°F (1°C)
HUMIDITY62%
BAROMETER1023 hPa (30.21 in Hg)
METARYSNW 202300Z 31008KT CAVOK 08/01 Q1023 FM2300 MOD TURB BLW 5000FT

Call us on +44-20-3874-8091 (24 Hours) to Hire a Private Jet or Get a Quick Quote.

Find Airports Near any Location

Processing
...